Weather in Santa Monica

United States     34°01′30″N   118°28′49″W
В апреле 2022 года жителям России запретили посещать сайт meteo.paraplan.net по решению Генеральной прокуратуры. Аудитория сайта уменьшилась в 10 раз. Владельцы сайта не видят смысла в поддержке погодного сервера в таких условиях. Сайт будет закрыт в октябре.
temp.,
°C
wind,
m/s
gust,
m/s
humid.,
%
clouds,
%
prec.,
mm/h
press.,
hPa
HPBL,
m
4 october, tue
tue423:00+20sse11770 0.0 1014107
02:00+20se12780 0.0 1013133
05:00+19se11810 0.0 101391
08:00+20s11770 0.0 1014102
11:00+24s21610 0.0 1014317
14:00+24sw436119 0.0 1012317
17:00+23sw34650 0.0 1011227
20:00+21s22730 0.0 1013149
5 october, wed
wed523:00+20s11790 0.0 1013112
02:00+20se11801 0.0 101372
05:00+20ne11780 0.0 101328
08:00+21se11720 0.0 101449
11:00+25ssw21570 0.0 1014311
14:00+25sw435818 0.0 1013301
17:00+23sw44650 0.0 1012231
20:00+21s22760 0.0 1013110
6 october, thu
thu623:00+21sse22780 0.0 1014123
02:00+20sse01780 0.0 101450
05:00+20ene00760 0.0 101422
08:00+22wsw11690 0.0 101539
11:00+25ssw32540 0.0 1015308
14:00+25ssw44563 0.0 1014286
17:00+24ssw44590 0.0 1013242
20:00+21ssw22690 0.0 1014125
7 october, fri
fri723:00+21se22760 0.0 1016121
02:00+21n00750 0.0 101539
05:00+21nne00720 0.0 101411
08:00+23w11600 0.0 101527
11:00+25sw32490 0.0 1015272
14:00+24sw335116 0.0 1013246
17:00+25sw44542 0.0 1012207
20:00+21sse33710 0.0 1014150
8 october, sat
sat823:00+21s01720 0.0 101582
02:00+21e11720 0.0 101438
05:00+21ese22760 0.0 101451
08:00+22se12690 0.0 101556
11:00+25s22530 0.0 1015277
14:00+25sw435513 0.0 1013360
17:00+23ssw336548 0.0 1013225
20:00+22s11694 0.0 1015111